TimeCST,TemperatureF,Dew PointF,Humidity,Sea Level PressureIn,VisibilityMPH,Wind Direction,Wind SpeedMPH,Gust SpeedMPH,PrecipitationIn,Events,Conditions,WindDirDegrees,DateUTC
12:53 AM,37.9,26.1,62,30.25,10.0,SE,3.5,-,N/A,,Clear,140,2013-11-19 06:53:00
1:53 AM,39.0,27.0,62,30.25,10.0,SSE,3.5,-,N/A,,Clear,150,2013-11-19 07:53:00
2:53 AM,37.9,25.0,60,30.24,10.0,SSE,4.6,-,N/A,,Clear,150,2013-11-19 08:53:00
3:53 AM,39.0,25.0,57,30.23,10.0,SE,4.6,-,N/A,,Clear,140,2013-11-19 09:53:00
4:53 AM,37.9,26.1,62,30.22,10.0,SE,6.9,-,N/A,,Clear,140,2013-11-19 10:53:00
5:53 AM,36.0,25.0,64,30.23,10.0,SSE,8.1,-,N/A,,Clear,150,2013-11-19 11:53:00
6:53 AM,36.0,26.1,67,30.22,10.0,SSE,8.1,-,N/A,,Clear,150,2013-11-19 12:53:00
7:53 AM,36.0,26.1,67,30.23,10.0,SSE,10.4,-,N/A,,Clear,160,2013-11-19 13:53:00
8:53 AM,42.1,28.0,58,30.23,10.0,SSE,11.5,-,N/A,,Clear,160,2013-11-19 14:53:00
9:53 AM,48.9,28.0,44,30.21,10.0,SSE,15.0,-,N/A,,Clear,160,2013-11-19 15:53:00
10:53 AM,53.1,28.0,38,30.20,10.0,SSE,16.1,24.2,N/A,,Mostly Cloudy,160,2013-11-19 16:53:00
11:53 AM,55.0,25.0,31,30.17,10.0,SSE,16.1,-,N/A,,Scattered Clouds,160,2013-11-19 17:53:00
12:53 PM,57.0,26.1,30,30.13,10.0,SSE,19.6,-,N/A,,Overcast,160,2013-11-19 18:53:00
1:53 PM,57.9,26.1,30,30.09,10.0,SSE,17.3,26.5,N/A,,Mostly Cloudy,150,2013-11-19 19:53:00
2:53 PM,59.0,25.0,27,30.06,10.0,SSE,13.8,-,N/A,,Clear,160,2013-11-19 20:53:00
3:53 PM,55.9,24.1,29,30.05,10.0,SSE,19.6,25.3,N/A,,Clear,150,2013-11-19 21:53:00
4:53 PM,54.0,25.0,33,30.04,10.0,SSE,12.7,-,N/A,,Overcast,150,2013-11-19 22:53:00
5:53 PM,52.0,27.0,38,30.03,10.0,SSE,11.5,-,N/A,,Clear,150,2013-11-19 23:53:00
6:53 PM,51.1,26.1,38,30.02,10.0,SSE,16.1,26.5,N/A,,Partly Cloudy,150,2013-11-20 00:53:00
7:53 PM,51.1,26.1,38,30.02,10.0,SSE,16.1,26.5,N/A,,Overcast,160,2013-11-20 01:53:00
8:53 PM,50.0,25.0,38,30.01,10.0,SSE,16.1,-,N/A,,Overcast,150,2013-11-20 02:53:00
9:53 PM,48.9,25.0,39,30.01,10.0,SSE,16.1,25.3,N/A,,Overcast,160,2013-11-20 03:53:00
10:53 PM,48.9,25.0,39,29.99,10.0,SSE,16.1,24.2,N/A,,Overcast,160,2013-11-20 04:53:00
11:53 PM,50.0,23.0,35,30.00,10.0,South,17.3,25.3,N/A,,Overcast,170,2013-11-20 05:53:00